Погода в Тунгокочене

Россия / Забайкальский край     53˚32′02″N   115˚36′54″E
темп.,
°C
ветер,
м/с
пор.,
м/с
влажн.,
%
обл.,
%
осадки,
мм/ч
давл.,
гПа
погр.,
м
17 января, вс
вс1700:00−28˚з1194100 0.0 102419
03:00−29˚с1196100 0.0 102420
06:00−29˚сз1295100 0.1 102525
09:00−33˚сз229496 0.1 102621
12:00−29˚ссз248115 0.0 1027321
15:00−27˚с367742 0.0 1026899
18:00−31˚сз228778 0.0 103020
21:00−34˚сз118939 0.0 103219
18 января, пн
пн1800:00−35˚зсз11870 0.0 103419
03:00−35˚з11850 0.0 103419
06:00−36˚зюз11840 0.0 103519
09:00−36˚юз11840 0.0 103419
12:00−31˚юз11744 0.0 1032143
15:00−27˚ююз126751 0.0 1028338
18:00−29˚ююв2283100 0.0 102741
21:00−29˚ююв2286100 0.0 102547
19 января, вт
вт1900:00−29˚ю1292100 0.0 102444
03:00−31˚ююз1296100 0.0 102319
06:00−32˚юз119662 0.0 102419
09:00−32˚ююз119540 0.0 102319
12:00−27˚ююв128765 0.0 1021176
15:00−23˚ю128682 0.0 1017272
18:00−26˚ююз229799 0.1 101823
21:00−25˚юз119999 0.3 102020
20 января, ср
ср2000:00−27˚зюз119824 0.0 102220
03:00−27˚зюз119412 0.0 102419
06:00−28˚зюз11950 0.0 102519
09:00−28˚юз11920 0.0 102619
12:00−23˚вюв008467 0.0 102447
15:00−20˚вюв118283 0.0 1021229
18:00−23˚вюв1198100 0.1 102220
21:00−24˚св0099100 0.1 102320
21 января, чт
чт2100:00−26˚ссв00100100 0.1 102320
03:00−26˚сз00100100 0.1 102319
06:00−28˚сз01100100 0.0 102419
09:00−29˚ссз0110098 0.0 102719
12:00−24˚с019249 0.0 1027120
15:00−22˚св118546 0.0 1026228
18:00−27˚в119622 0.0 102920
21:00−28˚св019612 0.0 103119